Paso Robles, CA

8:27 AM PDT on April 24, 2017 (GMT -0700)
Paso Robles Municipal

Weather History for KPRB - November, 2011

Change the Weather History Date:

Thursday, November 3, 2011

  Actual Average Record
Temperature  
Mean Temperature 51 °F 56 °F  
Max Temperature 68 °F 72 °F 90 °F (1949)
Min Temperature 33 °F 41 °F 23 °F (2003)
Degree Days  
Heating Degree Days 14 9  
Month to date heating degree days 24 25  
Since 1 July heating degree days 124 195  
Cooling Degree Days 0 0  
Month to date cooling degree days 0 0  
Year to date cooling degree days 940 926  
Growing Degree Days 1 (Base 50)    
Moisture  
Dew Point 36 °F    
Average Humidity 54    
Maximum Humidity 80    
Minimum Humidity 28    
Precipitation  
Precipitation T in 0.03 in 0.42 in (1968)
Month to date precipitation T 0.10  
Year to date precipitation 10.81 9.84  
Since 1 July precipitation 0.99  
Sea Level Pressure  
Sea Level Pressure 29.92 in    
Wind  
Wind Speed 7 mph (SW)    
Max Wind Speed 21 mph    
Max Gust Speed 26 mph    
Visibility 10 miles    
Events Rain    
T = Trace of Precipitation, MM = Missing Value Source: NWS Daily Summary

Daily Weather History Graph

Daily Weather History Graph

Search for Another Location

Airport or City:

Trip Planner

Search our weather history database for the weather conditions in past years. The results will help you decide how hot, cold, wet, or windy it might be!

Date:

Astronomy

Nov. 03, 2011 Rise Set
Actual Time 7:26 AM PDT 6:05 PM PDT
Civil Twilight 6:59 AM PDT 6:31 PM PDT
Nautical Twilight 6:29 AM PDT 7:02 PM PDT
Astronomical Twilight 5:59 AM PDT 7:31 PM PDT
Moon 2:19 PM PDT (11/3) 12:57 AM PDT (11/3)
Length of Visible Light 11h 32m
Length of Day
10h 39m
First Quarter, 61% of the Moon is Illuminated
Nov 3
First Quarter
Nov 10
Full
Nov 18
Last Quarter
Nov 24
New
Dec 2
First Quarter

Hourly Weather History & Observations

Time (PDT) Temp. Windchill Dew Point Humidity Pressure Visibility Wind Dir Wind Speed Gust Speed Precip Events Conditions
12:53 AM 42.1 °F 40.2 °F 17.1 °F 37% 30.03 in 10.0 mi South 3.5 mph - N/A   Clear
1:53 AM 39.9 °F - 18.0 °F 41% 30.03 in 10.0 mi Calm Calm - N/A   Clear
2:53 AM 39.9 °F - 21.0 °F 47% 30.01 in 10.0 mi Calm Calm - N/A   Clear
3:53 AM 37.0 °F - 19.9 °F 50% 30.01 in 10.0 mi Calm Calm - N/A   Clear
4:53 AM 37.0 °F - 19.0 °F 48% 30.00 in 10.0 mi Calm Calm - N/A   Clear
5:53 AM 34.0 °F 31.0 °F 21.0 °F 59% 29.99 in 10.0 mi SE 3.5 mph - 0.00 in   Clear
6:53 AM 35.1 °F - 21.0 °F 57% 30.00 in 10.0 mi Calm Calm - N/A   Clear
7:53 AM 34.0 °F 29.8 °F 21.0 °F 59% 30.00 in 10.0 mi East 4.6 mph - 0.00 in   Clear
8:53 AM 42.1 °F - 21.9 °F 45% 30.00 in 10.0 mi Calm Calm - N/A   Clear
9:53 AM 50.0 °F - 21.9 °F 33% 29.99 in 10.0 mi WNW 3.5 mph - N/A   Clear
10:53 AM 57.9 °F - 25.0 °F 28% 29.96 in 10.0 mi Calm Calm - N/A   Clear
12:53 PM 68.0 °F - 46.0 °F 45% 29.89 in 10.0 mi SSW 16.1 mph 23.0 mph N/A   Clear
1:53 PM 64.9 °F - 48.9 °F 56% 29.87 in 10.0 mi WSW 17.3 mph 25.3 mph N/A   Scattered Clouds
2:53 PM 62.1 °F - 48.0 °F 60% 29.86 in 10.0 mi SW 15.0 mph - N/A   Overcast
3:01 PM 62.6 °F - 48.2 °F 59% 29.86 in 10.0 mi SW 13.8 mph 21.9 mph N/A   Overcast
3:53 PM 63.0 °F - 48.0 °F 58% 29.85 in 10.0 mi SW 15.0 mph 25.3 mph N/A   Mostly Cloudy
4:53 PM 61.0 °F - 46.9 °F 60% 29.85 in 10.0 mi SW 10.4 mph 20.7 mph N/A   Scattered Clouds
5:53 PM 59.0 °F - 48.0 °F 67% 29.83 in 10.0 mi SW 12.7 mph - N/A   Mostly Cloudy
6:53 PM 57.0 °F - 48.0 °F 72% 29.83 in 10.0 mi WSW 16.1 mph - N/A   Partly Cloudy
7:53 PM 57.0 °F - 48.9 °F 74% 29.84 in 9.0 mi SW 9.2 mph - 0.00 in Rain Light Rain
8:53 PM 55.9 °F - 46.9 °F 72% 29.84 in 10.0 mi West 9.2 mph - 0.00 in   Overcast
9:16 PM 55.4 °F - 48.2 °F 77% 29.85 in 10.0 mi WNW 11.5 mph - N/A   Overcast
9:53 PM 53.6 °F - 46.4 °F 77% 29.86 in 10.0 mi West 6.9 mph - N/A Rain Light Rain
10:53 PM 52.0 °F - 46.0 °F 80% 29.85 in 10.0 mi SSW 8.1 mph - 0.00 in   Overcast
11:53 PM 48.0 °F - 43.0 °F 83% 29.86 in 10.0 mi WNW 5.8 mph - N/A   Clear